Regional Weather Roundup
Issued by NWS Newport/Morehead, NC

Home | Current Version | Previous Version | Text Only | Print | Product List | Glossary On
Versions: 1 2 3 4 5 6 7 8 9 10 11 12 13 14 15 16 17 18 19 20 21 22 23 24 25 26 27 28 29 30 31 32 33 34 35 36 37 38 39 40 41 42 43 44 45 46 47 48 49 50
000
ASUS42 KMHX 191726
RWRMHX
WEATHER ROUNDUP FOR EASTERN NORTH CAROLINA
NATIONAL WEATHER SERVICE NEWPORT/MOREHEAD CITY NC
100 PM EDT SAT AUG 19 2017

NOTE: "FAIR" INDICATES FEW OR NO CLOUDS BELOW 12,000 FEET
WITH NO SIGNIFICANT WEATHER AND/OR OBSTRUCTIONS TO VISIBILITY

NCZ015>017-031-032-045>047-102-103-191800-
NORTH COAST

CITY           SKY/WX    TMP DP  RH WIND       PRES   REMARKS
EDENTON        SUNNY     89  75  63 CALM      29.94S
ELIZABETH CITY MOSUNNY   90  76  63 VRB5      29.92F HX 101
KITTY HAWK     SUNNY     86  73  65 CALM      29.92S
MANTEO         MOSUNNY   87  76  69 N6        29.93F

$$

NCZ045>047-081-094-103-104-191800-
CENTRAL COAST

CITY           SKY/WX    TMP DP  RH WIND       PRES   REMARKS
FRISCO         CLOUDY    88  80  77 W6        29.94F HX 104

$$

NCZ095-097-098-100-101-191800-
SOUTHERN COAST

CITY           SKY/WX    TMP DP  RH WIND       PRES   REMARKS
BEAUFORT       SUNNY     89  83  82 SW20      29.93F HX 111
CEDAR ISLAND   NOT AVBL
JACKSONVILLE   MOSUNNY   90  78  68 S5        29.92F THUNDER HX 104
PINEY ISLAND   RAIN     N/A N/A N/A S7        29.93S
WILMINGTON     MOSUNNY   92  77  61 S3        29.93F HX 105


$$

NCZ011>013-027>030-043-044-078>080-089-090>093-098-191800-
COASTAL PLAIN

CITY           SKY/WX    TMP DP  RH WIND       PRES   REMARKS
AHOSKIE          N/A     84  73  69 CALM      29.94S
CLINTON        MOSUNNY   90  74  58 CALM      29.95S
ELIZABETHTOWN  NOT AVBL
GOLDSBORO      MOSUNNY   90  70  51 VRB3      29.94S
GREENVILLE     SUNNY     90  72  55 W3        29.95F
HAVELOCK       PTSUNNY   92  77  61 W9        29.93F HX 105
KENANSVILLE    PTSUNNY   90  73  58 N5        29.94F
KINSTON        NOT AVBL
NEW BERN       PTSUNNY   91  79  67 W6        29.94F HX 107
RICHLANDS      MOSUNNY   91  78  65 VRB5      29.94F HX 106
ROCKY MOUNT    SUNNY     88  71  57 W7        29.96R
WASHINGTON     SUNNY     90  74  58 W8        29.93F
WHITEVILLE     PTSUNNY   91  75  58 SW5       29.92F HX 101

$$

AMZ130-135-150-152-154-156-158-170-250-252-270-ANZ085-086-088-633-658-670-191800-
MARINE OBSERVATIONS

STATION/POSITION TIME  TEMP    WIND        PRES    WAVE   SWELL
                       AIR SEA DIR/SP/G            HT/PER HT/PER
                 (UTC) (F)     (DEG/KT/KT) (MB)    (FT/S) (FT/S)
CHESAPEAKE LIGHT NOT AVBL
64 E VA BEACH    1650   78 78  300/  6/  8 1013.8    4/ 6   3/ 6
DUCK             1700   84 72  100/  5/  6 1013.0
2 E DUCK         1700      79                N/A     1/ 8
OREGON INLET     1700   87 84  250/  5/  7 1013.3
13E OREGON INLT  1648      80                N/A     3/ 6   2/ 6
HATTERAS CG      1700   84 83  290/  7/  8 1013.9
DIAMOND BUOY     1650   84 84  240/ 14/ 16 1013.8    4/ 6   2/ 8
CAPE LOOKOUT     1700   86     220/ 14/ 17 1013.5
BEAUFORT LAB     1700   86 82  210/ 10/ 17 1013.1
30 SE NEW RVR IN 1708   83 84  220/ 14/ 17 1014.2
30 SE NEW RVR IN 1713      84                N/A     4/ 6
27 SE WRIGHTSVLE 1708   84 84  220/ 12/ 17 1014.2
5 SE WRIGHTSVLE  1708   84 83  200/ 12/ 17 1013.9
225 S CAPE HAT   1650   84 84  210/ 12/ 14 1017.3    4/ 5   2/ 6
41 SE CHARLESTON 1710   84 85  220/ 12/ 14 1014.6

$$



USA.gov is the U.S. government's official web portal to all federal, state and local government web resources and services.